Regional Weather Roundup
Issued by NWS

Home | Current Version | Previous Version | Graphics & Text | Print | Product List | Glossary On
Versions: 1 2 3 4 5 6 7 8 9 10 11 12 13 14 15 16 17 18 19 20 21 22 23 24 25 26 27 28 29 30 31 32 33 34 35 36 37 38 39 40 41 42 43 44 45 46 47 48 49 50
917
ASUS43 KBIS 221202
RWRND

NORTH DAKOTA REGIONAL WEATHER ROUNDUP
NATIONAL WEATHER SERVICE BISMARCK ND
600 AM CST MON JAN 22 2018

NOTE: "FAIR" INDICATES FEW OR NO CLOUDS BELOW 12,000 FEET WITH NO
SIGNIFICANT WEATHER AND/OR OBSTRUCTIONS TO VISIBILITY.


NDZ001>003-009>011-017-221300-
NORTHWEST NORTH DAKOTA

CITY           SKY/WX    TMP DP  RH WIND       PRES   REMARKS
WILLISTON      CLEAR      6   3  87 SW3       30.00S FOG
6HR MIN TEMP:   2; 6HR MAX TEMP:  15;

MINOT          FOG        8   5  87 NW5       30.01S VSB 1/4 WCI   0
$$

NDZ018>021-031>035-040>046-221300-
SOUTHWEST NORTH DAKOTA

CITY           SKY/WX    TMP DP  RH WIND       PRES   REMARKS
BISMARCK       FOG       18  16  92 E3        30.03S VSB 1/4
6HR MIN TEMP:  15; 6HR MAX TEMP:  19;

DICKINSON      CLEAR     14  10  84 W8        29.95S WCI   3
GARRISON         N/A      4   1  88 CALM      30.00S
6HR MIN TEMP:   4; 6HR MAX TEMP:   7;

HETTINGER ARPT CLEAR     13   9  84 NW7       29.98S WCI   3
$$

NDZ004>008-012>016-024-026-027-054-221300-
NORTHEAST NORTH DAKOTA

CITY           SKY/WX    TMP DP  RH WIND       PRES   REMARKS
GRAND FORKS    CLOUDY    24  22  91 N7        30.09F WCI  16
GRND FRKS AFB  CLOUDY   N/A N/A N/A NE6       30.11S
DEVILS LAKE    CLOUDY    22  21  96 E6        30.06S WCI  14
$$

NDZ022-023-025-028>030-036>039-047>053-221300-
SOUTHEAST NORTH DAKOTA

CITY           SKY/WX    TMP DP  RH WIND       PRES   REMARKS
FARGO          CLOUDY    25  23  92 N15       30.02F WCI  13
6HR MIN TEMP:  25; 6HR MAX TEMP:  26;

JAMESTOWN      CLOUDY    22  20  92 NE13      30.01F WCI  10
$$





USA.gov is the U.S. government's official web portal to all federal, state and local government web resources and services.